Weather History for New Bedford, MA

Change the Weather History Date:

Monday, April 8, 2013

  Actual Average Record
Temperature  
Mean Temperature 57 °F -  
Max Temperature 68 °F 52 °F 80 °F (1991)
Min Temperature 46 °F 36 °F 23 °F (1982)
Degree Days  
Heating Degree Days 8    
Growing Degree Days 7 (Base 50)    
Moisture  
Dew Point 41 °F    
Average Humidity 68    
Maximum Humidity 90    
Minimum Humidity 33    
Precipitation  
Precipitation 0.00 in - - ()
Sea Level Pressure  
Sea Level Pressure 30.04 in    
Wind  
Wind Speed 11 mph (SSW)    
Max Wind Speed 15 mph    
Max Gust Speed 21 mph    
Visibility 9 miles    
Events      
Averages and records for this station are not official NWS values.
T = Trace of Precipitation, MM = Missing Value Source: NWS Daily Summary

Daily Weather History Graph

Daily Weather History Graph

Search for Another Location

Airport:

Trip Planner

Search our weather history database for the weather conditions in past years. The results will help you decide how hot, cold, wet, or windy it might be!

Date:

Astronomy

Apr. 08, 2013 Rise Set
Actual Time 6:14 AM EDT 7:17 PM EDT
Civil Twilight 5:46 AM EDT 7:45 PM EDT
Nautical Twilight 5:12 AM EDT 8:19 PM EDT
Astronomical Twilight 4:37 AM EDT 8:55 PM EDT
Moon 5:04 AM EDT (4/8) 5:47 PM EDT (4/8)
Length of Visible Light 13h 59m
Length of Day
13h 02m
Waning Crescent, 3% of the Moon is Illuminated
Apr 8
Waning Crescent
Apr 10
New
Apr 18
First Quarter
Apr 25
Full
May 2
Last Quarter

Hourly Weather History & Observations

Time (EDT) Temp. Dew Point Humidity Pressure Visibility Wind Dir Wind Speed Gust Speed Precip Events Conditions
12:53 AM 46.9 °F 42.1 °F 83% 30.05 in 10.0 mi SSW 13.8 mph 19.6 mph N/A   Clear
1:53 AM 46.9 °F 43.0 °F 86% 30.03 in 9.0 mi SW 12.7 mph 19.6 mph N/A   Clear
2:53 AM 46.9 °F 43.0 °F 86% 30.01 in 9.0 mi SW 15.0 mph - N/A   Partly Cloudy
3:14 AM 48.2 °F 44.6 °F 87% 30.00 in 9.0 mi SW 13.8 mph 20.7 mph N/A   Mostly Cloudy
3:53 AM 48.0 °F 44.1 °F 86% 29.99 in 9.0 mi SW 15.0 mph 19.6 mph N/A   Mostly Cloudy
4:53 AM 46.9 °F 44.1 °F 90% 29.98 in 8.0 mi SW 8.1 mph - N/A   Clear
5:53 AM 46.9 °F 44.1 °F 90% 29.99 in 8.0 mi SW 6.9 mph - N/A   Mostly Cloudy
6:53 AM 46.9 °F 44.1 °F 90% 30.00 in 7.0 mi SW 4.6 mph - N/A   Overcast
7:53 AM 48.0 °F 44.1 °F 86% 30.02 in 7.0 mi WSW 5.8 mph - N/A   Clear
8:53 AM 52.0 °F 44.1 °F 74% 30.03 in 10.0 mi WNW 5.8 mph - N/A   Clear
9:53 AM 57.0 °F 41.0 °F 55% 30.03 in 10.0 mi NNW 8.1 mph - N/A   Clear
10:53 AM 59.0 °F 41.0 °F 51% 30.04 in 10.0 mi NW 6.9 mph - N/A   Clear
11:53 AM 61.0 °F 39.9 °F 46% 30.04 in 10.0 mi West 10.4 mph 16.1 mph N/A   Clear
12:53 PM 64.0 °F 39.9 °F 41% 30.03 in 10.0 mi West 8.1 mph - N/A   Clear
1:53 PM 66.0 °F 39.0 °F 37% 30.03 in 10.0 mi West 10.4 mph - N/A   Clear
2:53 PM 68.0 °F 37.9 °F 33% 30.02 in 10.0 mi West 9.2 mph - N/A   Clear
3:53 PM 62.1 °F 42.1 °F 48% 30.02 in 10.0 mi South 9.2 mph - N/A   Clear
4:53 PM 60.1 °F 39.9 °F 47% 30.04 in 10.0 mi South 11.5 mph - N/A   Clear
5:53 PM 54.0 °F 41.0 °F 62% 30.05 in 10.0 mi SE 11.5 mph - N/A   Clear
6:53 PM 52.0 °F 39.9 °F 63% 30.07 in 10.0 mi SE 9.2 mph - N/A   Clear
7:53 PM 50.0 °F 41.0 °F 71% 30.09 in 10.0 mi ESE 8.1 mph - N/A   Clear
8:53 PM 48.0 °F 37.9 °F 68% 30.11 in 10.0 mi SE 10.4 mph - N/A   Clear
9:53 PM 46.9 °F 37.9 °F 71% 30.12 in 10.0 mi SE 8.1 mph - N/A   Clear
10:53 PM 46.9 °F 39.0 °F 74% 30.11 in 10.0 mi SE 6.9 mph - N/A   Clear
11:53 PM 46.9 °F 37.9 °F 71% 30.11 in 10.0 mi SSE 6.9 mph - N/A   Clear